Inverness, United Kingdom

1:08 AM GMT on March 24, 2017 (GMT +0000)
Inverness

Weather History for EGPE - March, 2013

Change the Weather History Date:

Monday, March 25, 2013

  Actual Average Record
Temperature  
Mean Temperature 34 °F -  
Max Temperature 41 °F 50 °F 69 °F (2012)
Min Temperature 28 °F 36 °F 24 °F (2008)
Degree Days  
Heating Degree Days 30    
Moisture  
Dew Point 27 °F    
Average Humidity 76    
Maximum Humidity 93    
Minimum Humidity 61    
Precipitation  
Precipitation 0.00 in - - ()
Sea Level Pressure  
Sea Level Pressure 30.38 in    
Wind  
Wind Speed 7 mph ()    
Max Wind Speed 15 mph    
Max Gust Speed -    
Visibility 6.2 miles    
Events Snow    
Averages and records for this station are not official NWS values.
T = Trace of Precipitation, MM = Missing Value Source: Averaged Metar Reports

Daily Weather History Graph

Daily Weather History Graph

Search for Another Location

Airport or City:

Trip Planner

Search our weather history database for the weather conditions in past years. The results will help you decide how hot, cold, wet, or windy it might be!

Date:

Astronomy

Mar. 25, 2013 Rise Set
Actual Time 6:04 AM GMT 6:41 PM GMT
Civil Twilight 5:25 AM GMT 7:20 PM GMT
Nautical Twilight 4:38 AM GMT 8:07 PM GMT
Astronomical Twilight 3:46 AM GMT 8:59 PM GMT
Moon 4:43 PM GMT (3/25) 4:59 AM GMT (3/25)
Length of Visible Light 13h 55m
Length of Day
12h 37m
Waxing Gibbous, 96% of the Moon is Illuminated
Mar 25
Waxing Gibbous
Mar 27
Full
Apr 3
Last Quarter
Apr 10
New
Apr 18
First Quarter

Hourly Weather History & Observations

Time (GMT) Temp. Windchill Dew Point Humidity Pressure Visibility Wind Dir Wind Speed Gust Speed Precip Events Conditions
12:20 AM 32.0 °F 25.6 °F 24.8 °F 75% 30.42 in 6.2 mi ENE 6.9 mph - N/A   Unknown
12:50 AM 30.2 °F 23.4 °F 26.6 °F 86% 30.39 in 6.2 mi ENE 6.9 mph - N/A   Overcast
1:20 AM 30.2 °F 23.4 °F 26.6 °F 86% 30.39 in 6.2 mi ENE 6.9 mph - N/A   Mostly Cloudy
1:50 AM 32.0 °F 25.6 °F 26.6 °F 80% 30.39 in 6.2 mi ENE 6.9 mph - N/A   Unknown
2:20 AM 32.0 °F 24.8 °F 26.6 °F 80% 30.39 in 6.2 mi NE 8.1 mph - N/A   Mostly Cloudy
2:50 AM 32.0 °F 24.8 °F 26.6 °F 80% 30.39 in 6.2 mi NE 8.1 mph - N/A   Overcast
3:20 AM 32.0 °F 24.2 °F 26.6 °F 80% 30.39 in 6.2 mi ENE 9.2 mph - N/A   Unknown
3:50 AM 32.0 °F 24.8 °F 26.6 °F 80% 30.39 in 6.2 mi ENE 8.1 mph - N/A   Unknown
4:20 AM 32.0 °F 24.8 °F 26.6 °F 80% 30.39 in 6.2 mi ENE 8.1 mph - N/A   Unknown
4:50 AM 30.2 °F 24.3 °F 24.8 °F 80% 30.39 in 6.2 mi ENE 5.8 mph - N/A   Unknown
5:20 AM 32.0 °F 24.8 °F 26.6 °F 80% 30.39 in 6.2 mi ENE 8.1 mph - N/A   Unknown
5:50 AM 30.2 °F 23.4 °F 26.6 °F 86% 30.39 in 6.2 mi ENE 6.9 mph - N/A   Unknown
6:20 AM 30.2 °F 25.4 °F 26.6 °F 86% 30.39 in 6.2 mi ENE 4.6 mph - N/A   Mostly Cloudy
6:50 AM 32.0 °F 27.5 °F 26.6 °F 80% 30.42 in 6.2 mi ENE 4.6 mph - N/A   Scattered Clouds
7:20 AM 35.6 °F 29.9 °F 28.4 °F 75% 30.42 in 6.2 mi East 6.9 mph - N/A   Partly Cloudy
7:50 AM 35.6 °F 29.2 °F 28.4 °F 75% 30.42 in 6.2 mi ENE 8.1 mph - N/A   Partly Cloudy
8:20 AM 37.4 °F 30.3 °F 26.6 °F 65% 30.42 in 6.2 mi East 10.4 mph - N/A   Partly Cloudy
8:50 AM 37.4 °F 29.8 °F 28.4 °F 70% 30.39 in 6.2 mi East 11.5 mph - N/A   Partly Cloudy
9:20 AM 37.4 °F 29.3 °F 26.6 °F 65% 30.39 in 6.2 mi East 12.7 mph - N/A   Scattered Clouds
9:50 AM 37.4 °F 28.9 °F 26.6 °F 65% 30.39 in 6.2 mi East 13.8 mph - N/A   Mostly Cloudy
10:20 AM 35.6 °F 26.2 °F 26.6 °F 70% 30.39 in 6.2 mi East 15.0 mph - N/A   Mostly Cloudy
10:50 AM 37.4 °F 29.3 °F 30.2 °F 75% 30.39 in 6.2 mi East 12.7 mph - N/A   Mostly Cloudy
11:20 AM 37.4 °F 29.3 °F 30.2 °F 75% 30.39 in 6.2 mi East 12.7 mph - N/A Snow Light Snow Grains
11:50 AM 35.6 °F 26.6 °F 30.2 °F 81% 30.39 in 6.2 mi East 13.8 mph - N/A Snow Light Snow Showers
12:20 PM 41.0 °F 34.7 °F 32.0 °F 70% 30.39 in 6.2 mi ESE 10.4 mph - N/A   Mostly Cloudy
12:50 PM 39.2 °F 31.6 °F 28.4 °F 65% 30.39 in 6.2 mi East 12.7 mph - N/A   Scattered Clouds
1:20 PM 39.2 °F 32.0 °F 26.6 °F 61% 30.36 in 6.2 mi East 11.5 mph - N/A   Scattered Clouds
1:50 PM 39.2 °F 31.6 °F 26.6 °F 61% 30.36 in 6.2 mi East 12.7 mph - N/A   Scattered Clouds
2:20 PM 39.2 °F 32.5 °F 30.2 °F 70% 30.36 in 6.2 mi ESE 10.4 mph - N/A   Mostly Cloudy
2:50 PM 41.0 °F 35.2 °F 28.4 °F 61% 30.36 in 6.2 mi East 9.2 mph - N/A   Scattered Clouds
3:20 PM 39.2 °F 31.2 °F 26.6 °F 61% 30.36 in 6.2 mi East 13.8 mph - N/A   Scattered Clouds
3:50 PM 37.4 °F 30.3 °F 26.6 °F 65% 30.36 in 6.2 mi East 10.4 mph - N/A   Mostly Cloudy
4:20 PM 39.2 °F 32.5 °F 26.6 °F 61% 30.36 in 6.2 mi East 10.4 mph - N/A   Scattered Clouds
4:50 PM 37.4 °F 30.8 °F 28.4 °F 70% 30.33 in 6.2 mi East 9.2 mph - N/A   Scattered Clouds
5:20 PM 39.2 °F 32.5 °F 26.6 °F 61% 30.33 in 6.2 mi East 10.4 mph - N/A   Scattered Clouds
5:50 PM 37.4 °F 30.8 °F 26.6 °F 65% 30.33 in 6.2 mi ESE 9.2 mph - N/A   Scattered Clouds
6:20 PM 35.6 °F 29.9 °F 26.6 °F 70% 30.33 in 6.2 mi East 6.9 mph - N/A   Mostly Cloudy
6:50 PM 35.6 °F 29.9 °F 26.6 °F 70% 30.36 in 6.2 mi East 6.9 mph - N/A   Scattered Clouds
7:20 PM 32.0 °F 27.5 °F 26.6 °F 80% 30.36 in 6.2 mi East 4.6 mph - N/A   Partly Cloudy
7:50 PM 32.0 °F 28.7 °F 28.4 °F 87% 30.36 in 6.2 mi East 3.5 mph - N/A   Scattered Clouds
8:20 PM 30.2 °F 25.4 °F 26.6 °F 86% 30.36 in 6.2 mi East 4.6 mph - N/A   Partly Cloudy
8:50 PM 28.4 °F 24.6 °F 26.6 °F 93% 30.36 in 6.2 mi East 3.5 mph - N/A   Partly Cloudy
9:20 PM 30.2 °F - 26.6 °F 86% 30.36 in 6.2 mi Variable 2.3 mph - N/A   Partly Cloudy
9:50 PM 30.2 °F - 26.6 °F 86% 30.36 in 6.2 mi Calm Calm - N/A   Mostly Cloudy
10:20 PM 28.4 °F - 26.6 °F 93% 30.36 in 6.2 mi Calm Calm - N/A   Overcast
10:50 PM 30.2 °F - 26.6 °F 86% 30.36 in 6.2 mi Calm Calm - N/A   Mostly Cloudy
11:20 PM 30.2 °F - 28.4 °F 93% 30.36 in 6.2 mi East 2.3 mph - N/A   Mostly Cloudy
11:50 PM 28.4 °F - 26.6 °F 93% 30.36 in 6.2 mi Calm Calm - N/A   Unknown